Vertical_Velocity
2 1 2 6 1 -5 -3 -8 -1 -0 0 1 -2 0 -3 2 -2 -8 -3 -2 1 6 -3 -2 -1 0 -2 0 -1 0 2 1
-0 14 -1 -3 3 -7 1 -2 -4 -1 -4 -6 -5 -10 -1 -0 5 11 -3 2 -1 -3 -4 -5 -1 1 2 2 2 1 -1 -3
6 13 2 2 -4 3 0 -1 -2 -0 2 -2 2 4 3 6 6 -4 -3 -3 0 -1 -1 -2 -2 -0 1 1 -0 -3 -1 -2
2 -4 2 0 6 -3 2 -0 -6 -4 -0 1 0 -1 3 -1 2 2 -1 -2 -3 -3 0 2 -2 -3 -2 -3 -1 -1 -2 -1
5 5 3 1 2 -2 9 -1 2 -1 0 0 -2 -7 -5 3 3 -1 0 -1 1 1 -4 -3 -2 -0 -1 -3 -3 -1 -1 -2
-7 2 1 -2 0 -4 -1 2 -1 -0 -3 2 -3 0 2 3 2 -2 -0 4 5 -1 1 -1 0 -1 1 -0 -1 -0 1 0
4 2 -1 2 2 -1 -4 0 -0 2 4 6 4 3 1 -2 1 2 2 -0 -5 -1 4 -1 1 0 -3 -5 -3 -2 -1 1
-3 -3 -2 0 -1 -1 -1 3 1 4 1 4 4 2 2 1 1 2 -0 2 -1 2 2 -0 -1 1 -0 -2 -0 -3 -1 0
0 2 1 -3 -1 -2 -0 0 3 2 -1 2 4 6 2 3 1 -1 1 -2 2 -5 -10 -7 -10 -7 -4 -1 0 1 1 3
-5 -1 -1 -2 -3 -3 2 5 3 1 0 2 3 5 4 2 -2 -0 -2 0 -3 -3 -2 2 -3 -8 -1 -2 -4 -4 -1 -1
4 -0 -7 -4 -3 -4 1 7 -1 1 -1 1 2 0 1 1 2 6 5 -7 10 3 -0 -4 -4 -8 -4 -0 0 4 0 1
-5 -3 1 -2 -2 -3 -4 5 -1 -1 -0 1 0 1 -0 2 2 -4 -3 -9 -6 -6 -0 -5 -1 -2 -2 2 -1 -3 -1 -3
-4 -4 -5 -5 -4 -5 -7 -1 -1 1 1 1 -0 -1 -0 1 -2 8 -12 2 4 3 2 2 2 -1 -4 0 -2 -6 -4 -5
0 4 -2 -4 -3 -4 -3 0 -2 1 1 1 -2 -1 -1 -0 7 -19 18 9 6 0 3 3 -1 0 -3 2 1 -3 -4 -2
-1 9 2 5 7 10 4 2 -5 -7 1 2 -3 -0 0 4 -18 29 19 -4 7 5 1 1 7 -3 1 1 2 1 -0 0
13 8 4 -3 1 3 8 6 9 5 2 -4 1 2 1 -14 19 4 -13 2 -2 -5 4 -8 -11 2 -0 0 1 -2 -1 -2
-1 4 10 3 4 0 2 4 2 3 -0 14 8 3 -16 7 4 -23 -7 -1 -0 -3 -9 -2 8 5 -1 -4 0 1 2 -2
3 1 5 7 3 3 4 4 11 8 9 1 3 1 -11 5 2 -5 -6 0 9 9 6 5 2 -0 2 1 1 -1 -1 -0
-3 -3 -3 3 7 11 2 5 8 7 3 5 3 2 -1 1 -5 -1 10 -10 -13 -4 -4 -5 0 2 -3 -3 -0 -1 -1 1
Height
1528 1530 1533 1534 1537 1542 1544 1549 1553 1557 1559 1560 1562 1563 1564 1566 1566 1566 1569 1570 1570 1571 1570 1572 1572 1572 1571 1570 1567 1564 1561 1558
1528 1531 1530 1532 1535 1538 1541 1545 1549 1553 1555 1557 1560 1562 1563 1564 1564 1564 1566 1568 1568 1569 1569 1569 1568 1568 1567 1564 1562 1559 1557 1554
1526 1529 1528 1529 1532 1535 1539 1543 1547 1550 1553 1556 1559 1561 1562 1562 1562 1562 1564 1566 1567 1568 1568 1567 1566 1565 1563 1561 1558 1556 1554 1553
1522 1523 1525 1528 1531 1534 1538 1540 1544 1546 1551 1554 1557 1558 1559 1559 1561 1561 1563 1564 1565 1564 1563 1562 1561 1560 1559 1557 1556 1554 1552 1552
1518 1522 1523 1525 1530 1532 1534 1538 1541 1542 1547 1550 1552 1554 1555 1557 1557 1558 1560 1562 1561 1560 1559 1558 1557 1556 1555 1553 1553 1551 1549 1548
1512 1516 1520 1524 1527 1530 1533 1535 1538 1541 1543 1547 1549 1551 1552 1554 1554 1556 1558 1558 1557 1555 1555 1555 1554 1553 1552 1550 1549 1547 1546 1544
1510 1514 1519 1521 1524 1527 1530 1533 1536 1539 1541 1543 1545 1547 1547 1548 1551 1553 1554 1554 1554 1553 1552 1552 1551 1550 1548 1546 1545 1543 1542 1541
1507 1511 1515 1517 1521 1524 1527 1531 1534 1536 1537 1540 1541 1542 1544 1546 1548 1549 1550 1551 1550 1550 1549 1548 1548 1547 1544 1542 1541 1539 1538 1536
1503 1507 1511 1514 1519 1522 1525 1528 1530 1532 1534 1536 1538 1539 1541 1543 1543 1545 1545 1545 1544 1543 1544 1543 1542 1544 1542 1540 1537 1535 1534 1532
1501 1506 1510 1514 1517 1521 1525 1526 1528 1529 1531 1533 1535 1537 1538 1539 1540 1541 1541 1540 1538 1537 1538 1538 1538 1539 1538 1537 1534 1533 1531 1528
1503 1505 1508 1512 1516 1521 1524 1525 1526 1527 1529 1531 1532 1535 1537 1538 1539 1540 1538 1539 1539 1536 1535 1535 1534 1535 1535 1533 1531 1529 1527 1525
1500 1504 1507 1510 1514 1517 1521 1524 1525 1526 1527 1528 1530 1534 1535 1536 1538 1536 1536 1534 1537 1536 1535 1532 1531 1531 1531 1528 1526 1525 1523 1521
1494 1498 1502 1505 1507 1511 1515 1519 1521 1522 1524 1525 1528 1531 1532 1533 1534 1534 1531 1533 1532 1533 1530 1529 1528 1527 1526 1523 1521 1519 1517 1515
1489 1492 1493 1496 1500 1504 1508 1512 1515 1517 1518 1520 1524 1527 1528 1531 1531 1532 1531 1530 1530 1529 1528 1527 1524 1522 1520 1518 1515 1513 1512 1511
1483 1485 1486 1487 1490 1493 1499 1503 1506 1511 1513 1515 1520 1523 1525 1527 1529 1531 1528 1530 1528 1526 1525 1523 1521 1519 1517 1514 1511 1509 1507 1506
1483 1481 1482 1486 1489 1492 1496 1500 1501 1503 1505 1509 1515 1517 1521 1525 1525 1523 1524 1527 1525 1524 1521 1518 1517 1515 1512 1509 1507 1506 1504 1502
1481 1482 1482 1483 1486 1489 1492 1495 1495 1494 1499 1503 1507 1509 1514 1518 1516 1518 1523 1522 1519 1518 1515 1510 1508 1507 1506 1505 1502 1500 1499 1496
1481 1483 1484 1485 1485 1486 1487 1490 1493 1496 1500 1503 1505 1507 1509 1511 1513 1515 1516 1516 1515 1514 1513 1510 1505 1502 1501 1499 1497 1496 1494 1493
1482 1482 1482 1483 1483 1483 1485 1488 1491 1495 1500 1501 1502 1503 1505 1507 1508 1512 1513 1511 1509 1506 1505 1503 1499 1496 1495 1494 1492 1491 1489 1487